AirNav   ProFlight Series 2 Aviation Headset
 
 1348 users online  

M72 New Albany-Union County Airport
New Albany, Mississippi, USA

GOING TO NEW ALBANY?


FAA INFORMATION EFFECTIVE 18 JUNE 2020

Location

FAA Identifier: M72
Lat/Long: 34-32-56.4350N 089-01-27.9700W
34-32.940583N 089-01.466167W
34.5490097,-89.0244361
(estimated)
Elevation: 412.7 ft. / 125.8 m (surveyed)
Variation: 01W (2005)
From city: 3 miles N of NEW ALBANY, MS
Time zone: UTC -5 (UTC -6 during Standard Time)
Zip code: 38652

Airport Operations

Airport use: Open to the public
Activation date: 01/1963
Control tower: no
ARTCC: MEMPHIS CENTER
FSS: GREENWOOD FLIGHT SERVICE STATION
NOTAMs facility: GWO (NOTAM-D service available)
Attendance: MON-FRI DAYLIGHT HOURS
Wind indicator: lighted
Segmented circle: no
Lights: MIRL RWY 18/36 OPR DUSK-2200.
Beacon: white-green (lighted land airport)
Operates sunset to sunrise.

Airport Communications

CTAF/UNICOM: 122.8
  • APCH/DEP SVC PRVDD BY MEMPHIS ARTCC ON FREQS 135.9/273.55 (TUPELO RCAG).

Nearby radio navigation aids

VOR radial/distance  VOR name  Freq  Var
OTBr326/22.5TUPELO VOR/DME109.8004E
HLIr117/26.8HOLLY SPRINGS VORTAC112.4003E

Airport Services

Fuel available: 100LL
FUEL 24 HR CREDIT CARD SVC AVBL.
Parking: hangars and tiedowns
Airframe service: ON REQUEST.
Powerplant service: ON REQUEST.
Bottled oxygen: NONE
Bulk oxygen: NONE

Runway Information

Runway 18/36

Dimensions: 3903 x 75 ft. / 1190 x 23 m
Surface: asphalt, in good condition
Weight bearing capacity: 
Single wheel: 20.0
Runway edge lights: medium intensity
RUNWAY 18  RUNWAY 36
Latitude: 34-33.261667N34-32.619500N
Longitude: 089-01.490000W089-01.442333W
Elevation: 409.0 ft.405.9 ft.
Traffic pattern: leftleft
Runway heading: 177 magnetic, 176 true357 magnetic, 356 true
Markings: nonprecision, in fair conditionnonprecision, in fair condition
Visual slope indicator: 2-light PAPI on left (3.00 degrees glide path)2-light PAPI on left (3.00 degrees glide path)
Touchdown point: yes, no lightsyes, no lights
Obstructions: 64 ft. trees, 1952 ft. from runway, 28 ft. right of centerline, 27:1 slope to clear78 ft. trees, 2436 ft. from runway, 28:1 slope to clear

Airport Ownership and Management from official FAA records

Ownership: Publicly-owned
Owner: NEW ALBANY CITY & UNION COUNTY
P.O. BOX 56
NEW ALBANY, MS 38652
Phone 662-534-1010
Manager: RUDY DIXON
1034 COUNTY ROAD 80
NEW ALBANY, MS 38652
Phone 662-534-1050

Airport Operational Statistics

Aircraft based on the field: 14
Single engine airplanes: 14
    
Aircraft operations: avg 34/day *
52% transient general aviation
27% military
21% local general aviation
* for 12-month period ending 09 January 2020

Additional Remarks

FOR CD CTC MEMPHIS ARTCC AT 901-368-8453.

Instrument Procedures

NOTE: All procedures below are presented as PDF files. If you need a reader for these files, you should download the free Adobe Reader.

NOT FOR NAVIGATION. Please procure official charts for flight.
FAA instrument procedures published for use from 18 June 2020 at 0901Z to 16 July 2020 at 0900Z.

 
IAPs - Instrument Approach Procedures
RNAV (GPS) RWY 18   download (198KB)
RNAV (GPS) RWY 36   download (215KB)
NOTE: Special Take-Off Minimums/Departure Procedures apply   download (116KB)

Other nearby airports with instrument procedures:

25M - Ripley Airport (10 nm N)
8M1 - Booneville/Baldwyn Airport (19 nm E)
KTUP - Tupelo Regional Airport (21 nm SE)
KUOX - University-Oxford Airport (27 nm W)
M41 - Holly Springs-Marshall County Airport (29 nm NW)
 
Loc | Ops | Rwys | IFR | FBO | Links
Com | Nav | Svcs | Stats | Notes
Area around M72 (New Albany-Union County Airport)
 
Road maps at: MapQuest Bing Google
 
Aerial photo
WARNING: Photo may not be current or correct
Aerial photo of M72 (New Albany-Union County Airport)
Photo by Denny Young CFI
Photo taken 07-Oct-2007
looking north

Do you have a better or more recent aerial photo of New Albany-Union County Airport that you would like to share? If so, please send us your photo.

 
Sectional chart

 
Airport distance calculator
Flying to New Albany-Union County Airport? Find the distance to fly.

From to M72

Sunrise and sunset
Times for 13-Jul-2020
 Local
(UTC-5)
 Zulu
(UTC)
Morning civil twilight05:2610:26
Sunrise05:5510:55
Sunset20:0901:09
Evening civil twilight20:3801:38

Current date and time
Zulu (UTC)  13-Jul-2020 16:10:41
Local (UTC-5)  13-Jul-2020 11:10:41
 
METAR
KTUP 
21nm SE 
131553Z 35005KT 10SM CLR 29/22 A2996 RMK AO2 SLP142 T02940222 $
KUOX 
27nm W 
131555Z AUTO VRB05KT 9SM CLR 29/21 A2999 RMK AO2
KCRX 
30nm NE 
131555Z AUTO 32005KT 10SM SCT027 SCT031 28/21 A2997 RMK AO2 P0001
KM08 
40nm N 
131555Z AUTO 32005KT 10SM FEW023 28/22 A2998 RMK A01
TAF
KTUP 
21nm SE 
131139Z 1312/1412 VRB03KT P6SM SCT020 FM131700 03006KT P6SM FEW040 SCT250 FM140100 VRB03KT P6SM FEW250
NOTAMs
Click for the latest NOTAMs
NOTAMs are issued by the DoD/FAA and will open in a separate window not controlled by AirNav.

 

 
 

FBO, Fuel Providers, and Aircraft Ground Support

  
 Business Name 
 
 Contact 
 
 Services / Description 
 
Fuel Prices
 
Comments
  
New Albany/Union County Airport 662-534-1050
no information available

If you are affiliated with New Albany/Union County Airport and would like to show here your services, contact info, web link, logo, and more, click here
100LL
SS $3.25 
 Updated 30-Jun-2020
 
   1 read write
SS=Self service
Update Fuel Prices
 

Would you like to see your business listed on this page?

 If your business provides an interesting product or service to pilots, flight crews, aircraft, or users of the New Albany-Union County Airport, you should consider listing it here.  To start the listing process, click on the button below
 
Add a business
 

Other Pages about New Albany-Union County Airport

Update a link
 
Copyright © AirNav, LLC. All rights reserved. Privacy Policy  Contact